Location: Saint-Palais-sur-Mer
(45.6429°N, 1.0859°W)
Time: 15:46:59
(UTC+01:00)

S-56A Canister/Altair - Pass Details

Date: 10 February 2026
Orbit: 633 x 2484 km, 38.9° (Epoch: 16 March)

Event Time Altitude Azimuth Distance (km) Brightness Sun altitude
Exits shadow 02:27:38 16° 93° (E) 3,725 11.1 -55.5°
Drops below altitude 10° 02:29:50 10° 87° (E) 4,341 11.5 -55.3°
Sets 02:34:17 0° 80° (E) 5,616 12.3 -54.9°
